This is the latest recevied weather packets stored in our database for station/object K1BWE-1. If no packets are shown the sender has not sent any weather packets the latest 10 day(s).
| Time | Temp. | Humidity | Pressure | Rain* | Wind** | Luminosity | Snow |
|---|---|---|---|---|---|---|---|
| 1777568517 | 25.56° C | 17% | 1012.9 hPa | 0 mm | - | 763 W/m² | - |
| 1777568213 | 25° C | 18% | 1013.1 hPa | 0 mm | - | 763 W/m² | - |
| 1777567905 | 25.56° C | 18% | 1013.1 hPa | 0 mm | - | 542 W/m² | - |
| 1777567601 | 26.67° C | 16% | 1013 hPa | 0 mm | - | 829 W/m² | - |
| 1777567297 | 26.67° C | 23% | 1013.3 hPa | 0 mm | - | 681 W/m² | - |
| 1777566996 | 25.56° C | 20% | 1013 hPa | 0 mm | - | 771 W/m² | - |
| 1777566693 | 24.44° C | 19% | 1013.3 hPa | 0 mm | - | 689 W/m² | - |
| 1777566391 | 23.33° C | 20% | 1013.4 hPa | 0 mm | - | 437 W/m² | - |
| 1777566088 | 23.33° C | 20% | 1013.1 hPa | 0 mm | - | 367 W/m² | - |
| 1777565783 | 23.33° C | 29% | 1013 hPa | 0 mm | - | 351 W/m² | - |
| 1777565480 | 23.89° C | 21% | 1013.2 hPa | 0 mm | - | 323 W/m² | - |
| 1777565177 | 23.33° C | 20% | 1013.3 hPa | 0 mm | - | 396 W/m² | - |
| 1777564872 | 23.33° C | 22% | 1013.4 hPa | 0 mm | - | 425 W/m² | - |
| 1777564568 | 23.33° C | 21% | 1013.2 hPa | 0 mm | - | 578 W/m² | - |
| 1777564264 | 22.78° C | 29% | 1013.1 hPa | 0 mm | - | 264 W/m² | - |
| 1777563959 | 22.78° C | 21% | 1013.8 hPa | 0 mm | - | 295 W/m² | - |
| 1777563656 | 22.78° C | 23% | 1013.6 hPa | 0 mm | - | 267 W/m² | - |
| 1777563350 | 22.22° C | 22% | 1013.4 hPa | 0 mm | - | 187 W/m² | - |
| 1777563047 | 22.78° C | 24% | 1013.7 hPa | 0 mm | - | 223 W/m² | - |
| 1777562742 | 22.22° C | 21% | 1013.3 hPa | 0 mm | - | 332 W/m² | - |
| 1777562441 | 21.67° C | 22% | 1013.7 hPa | 0 mm | - | 309 W/m² | - |
| 1777562138 | 21.67° C | 28% | 1013.7 hPa | 0 mm | - | 213 W/m² | - |
| 1777561836 | 20.56° C | 34% | 1013.7 hPa | 0 mm | - | 193 W/m² | - |
| 1777561532 | 20° C | 30% | 1013.7 hPa | 0 mm | - | 187 W/m² | - |
| 1777561228 | 19.44° C | 32% | 1014 hPa | 0 mm | - | 182 W/m² | - |
* Rain latest hour (hover to see other rain measurements)
** Current wind speed in m/s (hover to see current wind gust speed)